Temp
21 22 21 21 21 22 22 22 22 22 22 22 22 22 22 22 22 21 22 22 21 21 21 21 21 21 20 20 20 20 20 19 19 20 20 19 19 19 19 19 19 19 19 18 18 18 18 18 18 18 18 18 18 18 18 18 18 18 18 18 18 18 18 18 18 18 18 18 18 18 18 18 18 17 17 17 17 17 16 16 16 16 16 16 16
22 21 21 21 22 21 21 22 22 22 22 22 22 22 22 22 22 21 21 21 21 21 21 21 21 21 20 20 21 20 21 20 20 20 20 19 19 19 19 19 19 19 18 18 18 18 18 18 18 18 18 18 18 18 18 18 18 18 18 18 17 18 18 18 18 18 18 18 17 18 18 18 18 17 17 17 17 17 16 16 16 16 16 16 16
22 21 21 21 21 21 21 21 21 22 22 22 22 22 22 22 22 21 21 21 21 21 21 21 21 21 21 21 21 21 21 21 21 20 20 19 19 19 19 19 19 19 18 18 18 18 18 18 18 18 18 18 18 18 18 17 17 17 18 18 18 18 18 17 17 17 17 18 17 17 17 17 17 17 17 17 17 17 16 16 16 16 16 16 16
22 21 21 20 21 21 21 21 21 21 22 22 22 22 22 22 21 21 21 21 21 21 21 21 21 21 21 21 21 21 21 21 21 20 20 19 19 19 19 19 19 19 19 19 18 18 18 18 18 18 17 17 17 17 17 17 17 17 17 18 18 18 18 17 17 18 18 18 18 17 17 17 17 17 17 17 17 16 16 16 16 16 16 16 16
22 21 21 21 21 20 20 21 21 21 21 22 22 22 22 21 21 21 21 21 21 21 21 21 21 21 21 21 21 21 21 21 21 20 20 19 19 19 19 19 19 19 19 19 19 18 18 18 18 17 17 17 17 17 17 17 17 17 17 17 17 18 17 17 18 18 18 18 18 17 17 17 17 17 17 17 16 16 16 16 16 16 16 16 16
22 21 21 21 21 20 20 21 21 21 21 22 22 22 21 21 21 21 21 21 21 20 21 21 21 21 21 21 21 21 21 20 20 20 19 19 19 19 19 18 19 19 19 19 19 18 18 18 18 17 17 17 17 17 17 17 17 17 17 17 17 17 17 17 18 18 18 18 17 17 17 17 17 17 17 17 17 16 16 16 16 16 16 16 16
21 21 21 21 21 20 20 20 20 21 21 21 21 21 21 21 21 21 21 21 21 21 20 20 20 20 21 21 21 20 20 20 20 20 19 19 19 19 19 18 19 19 19 18 18 18 18 18 18 17 17 17 17 17 17 17 17 17 17 17 17 17 17 17 17 17 18 18 17 17 17 17 17 17 17 17 17 16 16 16 16 16 16 16 16
21 21 21 20 20 20 20 20 20 20 21 21 21 21 21 21 21 21 21 21 21 21 20 20 20 20 20 20 20 20 20 20 20 20 20 19 19 19 19 19 19 19 19 18 18 18 18 19 18 17 17 17 17 17 17 17 17 17 17 17 17 17 18 18 17 17 17 18 18 18 17 17 17 17 17 17 16 16 16 16 16 16 16 16 16
21 21 21 20 20 20 20 20 20 20 20 21 21 21 21 21 21 21 21 21 21 21 20 20 20 20 20 20 20 20 20 20 20 20 20 19 19 19 19 19 19 19 18 18 18 18 18 19 19 18 17 17 17 17 17 17 17 17 17 17 17 17 18 18 17 17 18 18 18 17 17 17 17 17 17 16 16 16 16 16 16 16 16 16 16
20 20 21 21 20 20 20 20 20 20 20 20 21 21 21 21 21 21 21 21 21 21 20 20 20 20 20 20 20 20 20 20 20 20 20 19 19 19 19 19 19 19 19 18 18 18 18 19 19 19 18 18 17 17 17 17 17 17 17 17 17 17 18 18 17 18 18 18 17 17 17 17 17 17 16 16 16 16 16 16 16 16 16 16 16
20 20 21 21 20 21 20 20 20 20 20 20 20 21 21 21 20 21 21 21 21 20 20 20 20 20 20 20 20 20 20 20 20 20 19 19 19 19 19 19 19 19 19 18 18 18 18 18 19 19 19 18 18 18 17 17 17 17 17 17 17 18 18 18 18 18 18 17 17 17 17 17 16 17 16 16 16 16 16 16 16 16 16 16 16
20 20 21 20 20 21 20 20 20 20 20 20 20 20 20 20 20 20 20 20 20 20 20 20 20 20 20 20 20 20 20 20 20 20 19 19 19 19 18 18 19 19 18 18 18 18 18 18 18 19 19 19 18 18 18 18 18 18 17 17 18 18 18 18 18 18 18 18 17 17 17 17 16 16 16 16 16 16 16 16 16 16 16 16 16
20 20 21 21 20 21 21 20 20 20 20 20 20 20 20 20 20 20 20 20 20 20 20 20 20 20 20 20 20 20 20 20 20 20 20 19 19 19 18 18 18 18 18 18 18 18 18 18 18 19 19 19 19 19 18 18 18 18 17 17 18 18 18 18 18 18 18 18 18 17 17 17 16 16 16 16 16 16 16 16 16 16 16 16 16
20 20 21 22 21 21 21 20 20 20 20 20 20 20 20 20 20 20 20 20 20 20 20 20 20 20 20 20 20 20 20 20 20 20 20 19 19 19 19 18 18 18 18 18 18 18 18 18 18 19 19 19 19 19 19 18 18 18 17 17 18 18 18 18 18 18 18 18 18 17 17 17 16 16 16 16 16 16 15 15 16 16 16 16 15
21 21 22 22 21 21 21 21 20 20 20 20 19 19 19 20 20 20 20 19 20 20 20 19 19 20 20 20 20 20 20 20 20 20 20 19 19 19 19 19 18 18 18 18 18 18 18 18 18 18 19 18 19 19 19 19 18 18 17 17 18 18 18 18 18 18 18 18 18 17 17 17 17 16 16 16 16 15 15 15 15 15 15 15 15
21 21 21 21 21 20 20 21 20 20 20 20 19 19 19 19 19 19 19 19 19 19 19 19 20 20 20 20 20 20 20 20 20 20 19 19 19 19 19 19 19 18 18 18 19 19 18 18 18 18 18 18 18 19 19 19 18 18 18 17 18 18 18 18 18 18 18 18 18 18 17 17 17 16 16 16 16 15 15 15 15 15 15 15 15
21 21 21 20 20 21 20 20 20 20 20 20 20 19 19 19 19 19 19 19 19 19 19 19 20 20 20 20 20 20 19 19 19 19 19 19 19 19 19 19 19 19 18 19 19 19 19 18 18 18 18 18 18 18 19 19 19 18 18 17 18 18 18 18 18 18 18 18 18 18 18 17 17 17 16 16 16 15 15 15 15 15 15 15 15
21 21 21 20 20 21 21 20 20 20 20 20 20 20 19 19 19 19 19 19 19 19 19 19 20 20 20 20 20 19 19 19 19 19 19 19 19 19 19 19 19 18 18 18 18 18 18 18 18 18 18 18 18 18 19 19 19 18 18 17 18 18 18 18 18 18 18 18 18 18 18 18 17 17 17 16 16 15 15 15 15 15 15 15 15
20 20 21 20 20 21 21 20 20 20 20 20 20 19 19 19 19 19 19 19 19 19 19 19 20 20 20 20 19 19 19 19 19 19 19 19 19 19 19 19 18 18 18 18 18 18 18 18 18 18 18 17 17 17 18 19 19 18 18 17 18 18 18 18 18 18 19 18 18 18 18 18 18 17 17 16 16 15 15 15 15 15 15 15 15
20 20 20 21 21 21 21 20 20 20 20 20 20 19 19 19 19 19 19 19 19 19 19 19 20 20 19 19 19 19 19 19 19 19 19 19 19 19 19 18 18 18 18 18 18 18 18 18 18 18 18 17 17 17 18 18 18 18 18 17 18 18 18 18 18 18 19 19 18 18 17 17 17 17 16 16 16 15 15 15 15 15 15 15 15
19 19 20 21 21 21 20 20 20 20 20 20 19 19 19 19 19 19 19 19 19 19 19 19 19 19 19 19 19 19 18 18 18 18 18 19 19 19 19 18 18 18 18 18 18 18 18 18 18 18 18 17 17 17 17 18 18 18 18 18 18 18 18 18 18 19 19 19 18 17 17 17 16 16 16 16 16 16 15 15 15 15 15 15 15
18 19 20 21 21 20 20 20 20 20 20 20 20 20 20 19 19 19 19 19 19 19 19 19 19 19 19 19 18 18 18 18 18 18 18 18 18 18 18 18 18 18 18 18 18 18 18 18 18 18 18 17 17 17 17 18 18 18 18 18 18 18 18 18 18 19 19 19 18 17 17 17 16 16 16 16 15 15 15 15 15 15 15 15 15
18 19 19 20 20 20 20 20 20 21 20 20 20 20 20 20 19 19 19 19 19 19 19 19 19 19 19 19 18 18 18 18 18 18 18 18 18 18 18 18 18 18 18 18 18 18 18 18 18 18 18 17 17 17 17 18 18 18 18 18 18 19 18 18 19 19 19 19 18 17 17 16 16 16 16 15 15 15 15 15 15 15 15 15 15
18 19 19 19 19 20 20 21 21 21 20 20 20 19 20 20 19 19 19 19 19 19 19 19 19 19 19 19 18 18 18 18 18 18 18 18 18 18 18 18 18 18 18 18 18 18 18 18 18 17 17 17 17 17 17 18 18 18 18 18 18 18 19 19 19 19 19 19 18 17 17 16 16 16 16 15 15 15 15 15 15 15 14 14 15
18 19 18 18 19 20 21 21 21 20 20 20 20 19 20 19 19 19 19 19 19 19 19 19 19 19 19 19 19 18 18 18 18 18 18 18 18 18 18 18 18 18 18 18 18 18 18 17 18 18 17 17 17 17 17 18 18 18 18 18 18 18 18 18 19 19 19 19 18 18 17 16 16 16 16 15 15 15 15 15 15 14 14 14 14
18 18 18 19 19 20 21 21 21 20 20 20 20 20 20 20 19 19 19 19 19 19 19 19 19 19 19 19 19 19 18 18 18 18 18 18 18 18 18 18 18 18 18 18 18 18 18 18 18 18 18 18 18 18 18 18 18 18 18 18 18 18 18 18 19 19 19 19 18 18 17 17 16 16 16 15 15 15 15 15 15 14 14 14 14
18 18 19 19 20 20 21 21 21 20 20 20 20 20 20 20 20 19 19 19 19 19 19 19 19 19 19 19 19 19 19 19 18 19 19 18 18 18 18 18 18 18 18 18 18 17 18 18 18 18 18 18 18 18 18 18 18 18 18 18 18 18 18 18 18 19 19 19 18 18 17 17 16 16 16 16 16 15 15 15 15 14 14 14 14
18 18 19 19 20 20 20 20 21 20 20 20 20 20 20 20 20 20 19 19 19 19 19 19 19 19 19 18 19 19 19 19 19 19 19 18 18 18 18 18 18 18 18 18 17 17 17 17 18 18 18 18 18 18 18 18 18 18 18 18 18 18 18 18 18 19 19 19 19 18 18 17 17 16 16 16 16 16 15 15 15 15 15 15 14
18 18 19 19 19 19 20 20 20 20 20 19 19 20 20 19 20 20 20 19 19 19 19 19 19 19 19 19 19 19 19 19 19 19 19 19 18 18 18 18 18 18 18 18 17 17 17 17 18 18 18 18 18 18 18 18 19 18 18 18 18 18 18 19 19 19 19 19 19 19 18 17 17 17 16 16 16 16 16 15 15 15 15 15 15
18 19 19 19 19 19 19 20 20 20 19 19 19 19 19 19 19 20 20 19 19 19 19 19 19 19 19 19 19 18 19 19 19 19 19 18 18 18 18 18 18 18 18 18 18 18 18 17 18 18 18 18 18 18 18 18 18 18 19 19 18 18 18 18 18 18 19 19 19 19 18 18 17 17 17 17 16 16 16 16 15 15 15 15 14
18 18 19 19 19 19 19 19 20 20 19 19 19 19 19 19 19 19 20 19 19 19 19 19 19 19 19 19 19 19 18 18 18 18 18 18 18 18 18 18 18 18 18 18 18 18 18 18 18 18 18 18 18 17 18 18 18 18 19 19 19 18 18 18 18 18 18 19 19 19 19 18 18 17 17 17 16 16 16 16 16 16 15 15 15
19 19 19 19 19 19 19 19 19 19 19 19 19 19 19 19 19 19 19 20 19 19 19 19 19 19 19 18 19 19 18 18 18 18 18 18 18 18 18 18 18 18 18 18 18 18 18 18 18 18 18 18 18 17 18 18 18 18 18 19 19 18 18 18 18 18 18 18 19 19 19 18 18 18 17 17 17 16 16 16 16 16 16 15 15
20 20 20 19 20 19 19 20 20 19 19 19 19 19 19 19 19 19 19 19 19 19 19 19 19 18 18 18 18 18 18 18 18 18 18 18 18 18 18 18 18 17 18 18 17 18 18 18 18 18 18 18 17 17 17 18 18 18 18 18 18 18 18 18 18 18 18 18 18 18 18 18 18 18 18 17 17 16 16 16 16 16 16 16 16
20 20 20 20 20 20 20 20 20 19 19 19 19 19 19 19 19 19 19 19 19 19 18 18 19 19 18 18 18 18 18 18 18 18 18 18 18 18 18 17 17 17 17 18 18 18 18 18 18 18 18 18 18 17 17 18 18 18 18 18 18 18 18 18 18 18 18 18 18 17 17 18 18 18 18 18 17 17 16 16 16 16 16 16 16
21 20 21 21 21 20 20 20 20 19 19 19 19 19 19 19 19 19 19 19 20 19 18 18 18 19 19 18 18 18 18 18 18 18 18 18 18 18 18 17 17 17 17 18 18 18 18 18 18 18 18 18 17 17 17 17 18 18 17 17 17 17 17 18 18 18 18 18 18 17 17 18 18 18 18 18 18 17 17 17 16 16 16 16 16
22 21 21 21 21 20 20 20 20 19 19 19 19 19 19 19 19 20 20 20 20 19 19 18 18 18 18 18 18 18 18 18 18 18 18 18 18 18 18 18 18 18 18 18 18 18 18 18 18 18 18 18 17 17 17 17 18 17 17 17 17 16 17 17 17 18 18 18 18 18 18 18 18 18 18 18 18 18 18 17 17 17 16 16 16
22 22 21 21 21 21 20 20 20 19 20 20 20 19 19 19 19 19 19 19 19 19 18 17 18 18 18 18 18 18 18 18 18 18 18 18 18 18 18 18 18 18 18 18 18 18 18 18 18 18 18 18 17 17 17 17 17 17 16 17 17 16 16 17 17 17 17 17 18 18 18 18 18 18 17 18 18 18 18 18 18 17 17 16 16
22 22 21 21 21 21 21 21 20 20 20 20 20 19 19 19 19 19 19 19 18 18 18 18 17 18 18 18 18 18 18 18 17 17 18 18 18 18 17 17 18 18 18 18 18 17 17 18 18 18 17 18 17 17 17 17 17 17 16 16 17 17 16 16 16 16 16 17 17 17 18 18 18 18 17 17 17 17 18 18 18 18 17 17 16
21 21 21 21 21 21 21 21 21 20 20 20 20 19 19 19 19 18 19 19 19 18 18 18 18 18 18 18 18 18 18 18 17 17 17 17 17 17 17 17 17 17 17 17 17 17 17 17 17 17 17 17 17 16 16 17 17 17 16 16 17 17 16 16 16 15 16 17 17 17 17 18 18 18 18 18 18 18 18 18 17 18 18 17 17
21 21 21 21 21 21 20 20 20 20 20 20 20 19 19 18 18 18 18 19 19 18 18 18 18 18 18 18 18 18 18 18 17 17 17 17 17 17 17 16 17 17 17 17 17 17 17 17 17 17 17 17 16 16 16 17 17 17 16 16 17 16 16 16 16 15 16 17 17 17 17 17 17 17 17 18 18 18 18 18 18 17 18 17 17
20 20 20 20 21 21 21 20 20 21 20 20 20 19 19 18 18 18 18 18 19 19 18 18 18 17 17 18 18 18 18 18 18 17 17 18 18 17 17 16 17 17 16 16 17 17 17 17 17 17 16 16 16 16 16 16 16 16 16 16 17 17 16 17 16 16 16 17 17 16 17 17 17 17 17 17 17 18 18 18 18 17 18 17 17
19 20 20 20 21 21 21 21 20 21 20 20 20 19 19 19 18 18 18 18 18 18 18 18 18 18 17 17 18 18 18 18 18 18 18 18 18 17 17 17 17 17 16 16 16 16 16 16 16 16 16 16 16 16 16 16 16 16 16 15 16 16 16 16 16 16 16 17 17 16 16 16 16 17 17 17 17 17 17 17 17 17 17 17 17
20 20 20 20 21 21 21 21 21 21 20 20 20 20 19 19 18 18 18 18 17 17 18 18 18 18 18 17 17 17 18 18 18 18 17 17 17 17 17 17 17 17 16 16 15 16 16 15 16 16 16 15 15 15 15 15 15 15 15 15 15 15 16 16 16 16 16 16 16 16 16 16 16 16 17 17 17 17 17 17 16 16 16 17 17
19 19 20 20 20 21 21 21 21 21 20 20 20 20 20 19 18 18 18 18 17 17 17 17 18 18 18 18 18 18 18 17 17 17 17 17 17 17 17 16 16 16 16 15 15 15 15 15 15 15 15 15 15 15 15 15 15 15 15 14 14 15 16 15 14 16 16 16 17 16 16 16 16 16 16 17 17 17 17 17 16 16 16 16 16
19 19 19 20 20 21 21 21 21 21 20 20 20 20 20 18 18 17 17 17 17 17 17 17 17 18 18 18 18 18 18 17 17 17 17 17 17 17 17 16 16 16 15 15 15 14 15 15 15 15 15 15 15 15 14 14 14 15 15 15 15 15 16 14 14 16 16 16 17 17 16 16 16 16 16 16 16 17 17 16 16 17 17 17 17
19 19 20 21 21 21 22 21 21 21 20 20 20 20 19 18 18 18 17 17 17 17 17 17 17 17 17 17 17 17 17 18 18 17 17 17 17 17 17 17 16 16 15 15 15 15 14 15 15 15 15 15 16 15 15 15 15 15 15 15 15 16 15 14 15 16 15 16 16 16 16 16 16 16 16 16 16 16 17 17 17 17 17 17 17
19 19 20 21 21 22 22 21 22 21 20 20 19 19 19 19 18 18 18 18 17 17 17 17 17 17 17 17 17 17 17 17 17 18 18 17 17 17 17 17 16 16 16 15 15 15 15 15 15 15 15 15 15 15 15 15 15 15 15 15 15 15 15 15 15 15 15 16 16 16 16 16 16 16 16 16 17 17 17 17 17 16 16 16 16
19 19 20 21 21 22 21 21 22 21 21 20 19 19 19 19 18 18 18 18 18 17 17 17 17 17 17 17 17 17 17 17 17 17 17 17 17 17 17 17 16 16 16 16 15 15 15 15 15 15 15 15 15 15 15 15 15 15 15 15 15 15 15 15 15 15 15 15 15 15 16 16 16 16 16 17 17 17 17 17 17 17 16 16 16
19 20 20 21 21 21 21 21 22 21 21 20 20 19 19 19 19 19 18 18 18 17 17 17 16 16 16 16 16 17 17 17 17 17 17 17 17 17 17 17 17 16 16 16 16 16 16 16 16 16 16 15 15 15 15 15 15 15 15 15 15 15 15 15 15 14 14 14 15 14 14 15 16 16 16 16 16 16 17 17 16 16 16 16 16
19 20 20 20 21 21 21 21 22 21 21 20 20 19 19 19 19 19 18 17 17 17 17 16 16 16 16 16 16 16 17 17 17 17 17 17 17 17 17 17 17 16 16 16 16 16 16 16 16 16 16 16 15 15 15 15 15 15 15 15 15 15 15 15 15 15 14 14 14 13 13 13 15 16 15 15 16 16 16 16 16 15 15 15 16
19 18 19 19 20 21 21 21 22 22 21 20 20 19 19 19 19 19 18 17 17 16 16 16 16 16 16 16 16 16 17 17 16 16 16 16 16 16 16 16 16 16 16 16 16 16 16 17 16 16 16 16 16 16 16 15 15 15 15 15 15 15 15 15 15 15 14 13 14 13 12 13 14 15 15 15 15 15 15 15 15 15 15 15 15
Height
770 771 773 775 778 779 781 782 784 784 785 786 786 787 787 788 788 788 789 789 789 790 791 792 792 793 795 796 797 798 799 800 801 801 802 803 804 804 804 805 805 806 806 807 807 807 807 807 808 808 808 809 809 809 809 809 809 810 811 812 812 813 814 814 814 814 814 813 814 814 814 815 815 815 815 815 815 816 816 816 816 816 817 817 816
768 771 773 775 777 779 781 782 785 785 786 787 788 788 788 789 789 790 790 790 791 791 792 793 794 795 796 797 798 799 800 800 801 802 803 804 805 805 805 806 806 807 808 808 808 808 809 809 809 809 809 810 810 810 810 810 810 811 812 812 813 814 814 814 814 815 815 814 815 815 815 815 816 816 816 816 816 817 817 817 817 817 818 818 818
768 771 773 775 777 779 781 783 785 786 787 788 789 789 789 790 790 791 791 792 792 793 794 794 795 795 796 797 798 799 800 801 802 803 804 805 806 806 806 807 807 808 809 809 810 810 810 810 810 810 810 810 811 811 811 811 811 812 812 813 814 814 815 815 815 816 816 815 816 816 816 816 817 817 817 816 817 817 818 818 819 819 819 819 819
768 771 774 776 778 780 781 784 785 787 788 789 790 790 791 791 792 792 792 793 793 794 795 795 796 796 797 798 798 799 800 801 802 804 805 806 807 807 808 808 808 809 810 810 811 811 811 811 811 811 811 811 812 812 812 812 812 813 813 814 814 815 816 816 817 816 817 816 816 817 817 817 818 818 818 817 818 818 819 819 820 820 820 820 820
769 771 774 776 778 780 782 784 785 787 788 789 790 791 792 792 793 793 793 794 794 795 796 796 797 797 798 798 799 800 801 802 803 805 806 807 808 808 809 809 810 810 810 811 812 812 812 813 813 813 813 813 813 813 813 813 813 814 814 815 816 816 817 817 818 818 818 817 817 817 818 818 819 819 819 818 818 819 820 820 821 821 821 821 821
769 771 774 776 779 781 782 784 786 787 789 790 791 792 793 793 794 794 794 794 795 796 796 797 797 798 799 799 800 801 802 803 804 806 807 808 808 809 810 810 811 811 812 812 812 813 813 814 814 814 814 814 814 814 814 815 815 815 815 816 817 817 818 818 819 819 819 819 819 819 819 819 820 820 820 819 819 820 820 821 822 822 822 822 823
769 772 774 776 779 781 783 784 786 788 789 791 791 792 793 794 794 795 795 795 796 796 797 798 798 799 800 800 801 802 803 804 805 806 808 809 809 810 811 811 812 812 813 813 813 814 814 815 815 815 815 815 815 815 816 816 816 816 817 817 818 818 818 819 820 820 820 820 820 820 820 821 821 821 821 820 820 820 821 822 823 823 823 824 824
771 773 774 776 779 782 784 785 787 788 790 791 792 793 794 795 795 795 796 796 797 797 798 798 799 800 801 802 802 803 804 805 806 807 808 809 810 811 812 812 813 813 814 814 814 815 815 816 816 816 816 816 816 816 817 817 817 817 817 818 818 819 819 820 821 821 821 821 821 821 821 822 822 822 823 822 821 821 822 823 823 824 824 825 825
772 774 775 777 779 783 784 786 787 789 790 791 793 793 794 795 795 796 797 797 797 798 799 799 800 801 801 802 803 804 805 806 807 807 809 809 811 811 812 813 813 814 814 815 815 816 816 816 817 817 817 817 818 818 818 818 818 818 819 819 819 820 820 821 821 822 822 822 822 822 822 823 823 824 824 823 822 822 822 823 824 825 825 826 826
772 774 776 777 780 783 784 786 788 789 790 791 793 794 795 795 796 797 798 798 798 799 800 800 801 802 803 803 804 805 805 806 807 808 809 810 811 811 812 813 814 814 815 816 816 816 816 817 818 818 818 818 819 819 819 819 820 820 820 820 820 821 821 821 822 822 823 823 823 824 824 824 824 825 825 824 824 824 824 824 825 825 826 826 827
773 775 776 778 780 783 785 787 788 789 790 792 793 795 796 796 797 798 798 799 799 800 800 801 802 803 803 804 805 806 806 807 808 808 809 810 811 812 813 813 814 815 816 816 816 817 817 818 819 819 819 819 820 820 820 821 821 821 821 821 821 821 821 822 822 823 823 824 824 824 825 825 825 826 825 825 825 825 825 825 826 826 827 827 827
774 775 777 779 780 783 785 787 789 790 792 793 794 796 797 797 798 798 799 799 800 801 801 802 803 804 804 805 806 806 807 808 808 809 809 810 811 812 813 814 815 815 816 817 817 817 817 818 819 819 820 820 821 821 821 821 821 822 822 821 821 821 821 822 823 823 824 824 825 825 825 825 826 826 826 826 827 827 827 827 827 827 827 827 828
774 776 777 779 781 784 786 788 790 791 793 794 796 797 798 798 799 799 800 800 801 801 802 803 804 805 805 805 806 807 808 808 809 809 809 810 811 813 814 815 815 816 817 817 818 818 818 818 819 819 820 820 821 822 822 822 822 822 822 822 822 822 822 823 823 824 824 825 825 825 825 826 826 827 827 827 828 828 828 828 828 828 828 828 828
774 777 779 779 780 783 785 788 790 792 794 795 796 797 799 799 800 800 800 801 802 802 803 804 805 805 805 806 807 808 809 809 809 810 810 811 812 813 814 815 816 817 817 818 818 818 819 819 819 820 820 820 821 822 822 823 823 823 823 823 823 823 823 824 824 825 825 825 825 826 826 826 827 827 827 828 828 829 830 830 829 829 829 828 829
773 776 780 781 780 783 785 788 790 792 794 795 797 798 799 800 801 801 802 802 803 804 804 805 805 806 806 807 808 808 809 810 810 811 812 812 813 814 815 816 816 817 817 818 818 819 819 819 820 820 820 820 821 822 822 823 823 824 824 823 824 824 824 824 825 825 825 826 826 826 826 827 827 827 828 828 829 830 830 831 831 830 830 829 829
774 776 780 783 783 783 785 788 790 792 794 796 797 798 799 800 801 802 802 803 804 804 805 806 807 807 808 808 809 809 810 810 811 812 813 814 814 815 815 816 816 817 817 817 818 818 819 819 820 820 820 820 821 822 823 824 824 824 824 824 825 825 825 825 826 826 826 827 827 827 827 827 828 828 828 828 829 830 831 832 832 831 831 830 830
776 778 780 784 786 784 786 788 790 792 794 796 797 799 800 800 801 802 803 804 804 805 806 807 807 808 808 808 809 810 811 812 812 813 814 815 815 816 816 817 817 817 817 817 818 818 819 819 820 820 820 821 821 822 823 824 825 825 825 825 825 825 826 826 826 826 827 827 827 828 828 828 828 828 828 828 829 830 831 832 832 832 832 832 831
777 779 780 784 787 786 787 789 791 793 794 796 797 798 799 800 801 802 803 804 805 806 807 807 808 808 808 809 810 811 812 812 813 814 814 815 816 817 817 818 818 818 818 818 818 818 819 820 820 821 821 821 821 822 823 824 825 825 826 826 826 826 826 827 827 827 827 827 828 828 828 828 828 828 828 828 829 830 831 832 833 833 833 833 832
778 780 780 783 787 787 787 790 791 792 794 795 797 798 799 800 801 802 803 804 805 806 807 808 808 809 809 809 811 812 813 813 814 814 815 816 817 818 818 818 819 819 819 819 819 819 820 820 821 821 821 822 822 823 824 825 826 826 827 827 826 827 827 828 828 828 828 828 828 828 828 828 828 828 829 829 829 830 831 832 833 833 833 833 833
779 781 781 784 786 786 788 791 792 792 794 795 797 798 799 800 801 802 804 805 806 807 808 808 809 809 809 810 811 812 813 814 814 815 816 817 818 818 819 819 819 819 819 819 819 820 820 821 821 821 822 823 823 824 824 825 826 827 828 827 827 828 828 829 829 829 829 829 829 829 829 829 829 829 829 829 829 830 831 832 833 833 834 834 834
780 781 782 784 785 786 788 791 792 793 794 795 797 798 799 800 802 803 804 806 806 808 808 809 809 809 810 811 812 813 813 814 814 815 816 817 818 818 819 819 819 819 819 819 820 820 821 821 821 821 822 823 824 824 825 825 826 827 828 828 828 829 829 830 830 830 829 829 829 830 830 829 829 829 830 830 830 830 831 832 833 833 834 834 834
779 780 782 784 785 787 788 791 793 793 793 795 797 798 799 800 802 803 804 806 807 808 808 809 809 809 810 811 812 813 813 814 814 815 816 817 818 818 819 819 819 819 819 819 820 820 821 821 822 822 822 823 824 825 825 826 827 828 828 829 829 829 830 830 831 831 830 830 830 830 830 830 830 830 830 830 831 831 831 832 832 833 834 834 834
778 780 783 784 786 788 789 791 792 792 793 794 796 798 799 800 802 803 805 806 807 808 808 809 809 810 811 812 813 813 814 814 815 816 816 817 818 819 819 820 820 820 820 820 820 820 821 822 822 823 823 823 824 825 825 826 827 828 829 829 829 830 830 831 831 831 831 831 831 831 831 830 830 830 830 831 831 831 831 832 832 833 834 834 834
778 781 783 785 787 789 790 791 791 791 792 794 797 798 800 801 803 804 805 806 807 807 808 809 810 811 812 812 813 814 814 815 815 816 816 817 818 819 819 820 820 820 820 820 820 821 821 822 822 823 823 824 824 825 826 827 827 828 829 829 829 830 831 831 832 832 832 832 831 831 831 831 831 831 831 831 832 832 832 832 833 833 833 834 834
780 782 784 786 788 790 791 791 791 791 793 795 797 799 801 802 803 804 805 806 807 807 808 809 810 811 812 813 814 814 815 815 816 816 816 817 818 819 819 820 820 820 821 821 821 821 821 822 823 823 823 824 825 826 827 827 828 829 829 830 830 830 831 832 833 833 833 832 832 832 832 831 831 831 831 831 832 832 833 833 833 833 833 834 834
780 782 784 786 788 790 790 791 791 792 794 796 798 800 801 802 803 804 805 806 807 807 808 809 810 811 812 813 814 814 815 816 816 816 816 817 818 819 819 820 820 821 821 821 821 822 822 822 823 823 824 824 825 826 827 828 829 829 830 830 831 831 832 833 833 834 834 833 833 833 832 832 832 831 832 832 832 833 833 834 834 834 834 834 835
779 781 783 785 787 789 790 791 791 793 795 797 798 800 801 802 803 804 805 806 807 807 808 809 810 811 812 813 814 814 815 816 816 816 817 817 818 819 819 820 820 821 821 822 822 822 822 823 823 824 824 825 826 827 828 829 829 830 830 831 831 832 832 833 834 834 834 834 834 833 833 832 832 832 832 832 833 833 834 834 835 834 834 835 835
779 781 783 784 786 788 789 791 792 794 796 798 799 800 801 803 804 804 805 806 807 807 808 809 810 811 812 813 813 814 815 815 816 816 817 818 819 819 819 820 821 822 822 822 823 823 823 823 824 824 825 825 826 827 828 829 829 830 830 831 831 832 832 833 834 834 835 835 834 834 834 833 833 832 833 833 833 834 834 835 835 835 835 835 836
780 781 783 785 787 789 790 792 794 795 797 799 800 801 802 803 804 805 806 807 807 808 809 809 810 811 811 812 813 814 814 815 815 816 817 817 818 819 820 820 821 822 822 823 823 824 824 824 824 825 826 826 827 828 828 829 829 830 830 831 831 832 832 833 833 834 835 835 835 835 834 834 834 834 834 834 834 834 835 835 835 835 835 836 836
781 783 785 787 789 790 792 793 795 797 798 799 800 801 802 804 804 805 806 807 807 808 809 809 810 810 811 812 812 813 813 814 815 816 817 817 818 819 820 821 821 822 823 823 823 824 824 824 825 825 826 827 828 829 829 829 830 830 830 831 831 832 832 833 833 834 835 835 835 835 835 835 835 835 835 835 835 835 835 835 836 836 836 836 837
782 784 785 787 789 791 792 794 796 797 798 799 801 801 803 804 805 806 806 807 807 808 808 809 810 810 811 812 812 812 813 813 815 816 817 817 818 819 820 821 821 822 823 823 823 823 824 825 825 826 827 828 829 829 829 830 830 831 831 831 832 832 832 833 834 834 835 835 835 835 835 835 836 836 836 836 836 836 836 836 836 836 836 836 837
781 783 785 787 789 790 791 793 795 797 798 799 800 801 803 804 805 806 806 806 807 808 808 808 809 809 810 811 811 811 812 813 814 816 817 817 818 819 820 821 821 822 822 823 823 823 824 825 826 826 827 828 829 830 830 830 831 831 832 832 832 832 833 833 834 835 835 835 835 835 835 836 836 836 836 836 837 837 837 837 836 836 836 836 837
781 783 785 787 788 789 791 792 794 796 798 799 800 801 803 804 805 806 806 806 807 807 807 807 808 808 809 809 810 811 812 813 814 815 816 817 818 819 819 820 821 821 822 822 823 823 824 825 826 826 827 828 829 830 831 831 831 832 832 832 832 833 833 834 834 835 835 835 835 835 836 836 836 837 837 837 838 838 838 838 837 837 837 837 837
781 783 784 786 788 789 791 792 794 796 797 799 800 801 803 804 805 806 806 806 806 806 806 806 806 807 807 808 809 810 811 812 813 813 814 816 817 818 819 819 820 821 821 822 822 823 823 824 825 826 827 828 829 830 831 831 831 832 832 832 833 833 834 834 834 834 834 835 835 835 836 836 837 837 837 837 838 838 838 838 838 838 837 837 838
780 782 784 786 788 789 791 793 794 796 797 799 800 801 803 804 805 806 806 806 806 806 806 805 806 806 806 807 808 809 811 812 812 813 814 815 816 817 818 818 819 820 821 821 822 823 823 824 825 826 827 828 829 830 831 831 832 832 832 833 834 834 834 835 834 834 834 834 834 835 835 836 837 837 837 838 838 838 838 838 838 838 838 838 838
779 781 784 786 788 789 791 793 794 796 797 798 799 801 803 804 805 806 806 806 806 806 805 805 805 806 806 807 808 809 810 811 812 813 813 815 816 817 817 818 819 819 820 821 822 822 823 824 825 826 827 828 829 829 830 831 831 832 833 833 834 835 836 836 836 835 834 834 834 834 835 836 836 837 837 838 838 838 838 838 838 838 838 838 838
779 781 783 785 787 789 791 793 794 796 797 798 799 801 803 805 805 806 806 806 806 806 806 806 806 806 806 807 808 809 810 811 812 812 813 815 816 817 818 818 819 819 820 821 822 823 824 825 826 827 827 828 828 829 830 830 831 832 833 833 834 835 836 837 836 836 835 834 834 834 835 835 835 836 836 837 837 838 838 838 838 838 838 838 839
779 780 782 784 786 788 790 792 794 796 797 798 799 802 803 805 806 806 806 806 806 806 806 806 806 806 806 807 808 809 810 811 812 812 813 815 816 817 818 818 819 819 820 821 822 823 824 825 826 826 827 828 828 829 829 830 831 832 833 834 834 835 836 837 837 838 836 834 834 835 835 835 834 835 835 835 836 836 837 837 838 838 838 838 838
780 781 782 784 786 788 790 792 794 796 797 798 800 802 803 805 806 806 806 806 806 806 807 807 807 807 806 807 807 808 809 810 811 812 813 814 816 817 818 818 818 819 819 820 821 823 824 825 826 827 827 828 829 830 830 830 831 831 832 834 834 835 836 837 838 838 836 834 834 834 835 834 834 834 834 834 835 835 836 836 837 837 837 838 838
781 782 783 784 786 788 790 792 794 795 796 798 799 801 803 805 805 806 806 806 806 807 807 808 808 807 807 807 808 809 809 810 811 812 813 814 815 816 817 818 818 818 819 820 821 822 823 824 826 827 827 828 829 830 830 830 831 831 832 833 834 835 836 835 836 836 834 833 833 834 834 834 834 834 834 834 834 834 835 835 835 836 836 837 837
781 783 783 784 785 787 789 791 793 795 796 797 799 801 802 804 805 806 806 806 807 807 808 808 809 809 808 808 808 809 810 810 811 812 813 814 815 816 817 818 818 818 819 820 822 823 823 824 826 827 827 828 829 830 830 830 831 831 831 832 832 833 834 834 834 834 833 833 833 833 834 834 834 834 834 834 834 834 834 834 834 835 835 836 836
780 783 784 784 785 786 788 791 793 795 796 798 800 801 802 803 804 806 806 807 808 808 808 809 809 810 809 809 809 810 810 811 812 812 813 814 815 816 817 817 818 818 819 821 822 823 823 824 825 826 827 828 828 829 830 830 831 831 831 832 832 833 833 833 833 833 833 833 833 833 833 834 834 834 834 834 834 834 833 833 833 833 834 835 835
778 781 783 784 785 786 788 790 793 795 797 799 800 802 803 804 805 806 807 807 808 809 809 809 810 810 810 810 810 811 811 812 812 813 814 815 816 817 817 817 818 818 819 821 822 823 824 825 825 826 827 828 829 829 829 830 831 832 832 833 834 833 833 832 832 832 832 832 833 833 833 834 834 834 834 834 834 834 833 833 833 833 833 833 834
776 779 782 783 785 786 787 789 792 795 797 799 801 802 803 804 805 807 807 808 809 809 810 810 810 810 810 810 810 811 811 812 813 814 814 815 816 816 817 817 818 819 820 821 822 823 824 825 826 827 827 828 829 829 829 829 830 832 832 833 834 834 834 834 833 833 833 833 833 833 833 834 834 834 834 834 834 834 834 833 834 834 833 834 834
775 778 780 782 784 785 786 789 791 793 796 799 801 802 803 804 805 807 808 808 809 809 810 810 811 811 811 811 811 811 812 812 812 813 814 815 815 816 817 817 818 819 821 822 822 823 824 825 826 827 827 828 829 829 829 829 830 831 831 832 833 835 835 835 834 833 833 833 833 834 834 834 834 834 834 834 834 833 833 833 834 834 834 834 834
776 777 780 782 783 784 786 788 790 792 796 798 800 801 802 803 804 805 807 807 808 809 809 810 811 812 812 813 813 813 813 813 813 813 814 814 815 816 817 818 819 820 821 822 822 823 824 825 826 827 827 828 828 828 829 829 829 830 830 831 832 834 834 834 834 834 834 833 834 834 834 834 834 834 834 833 833 833 833 833 833 833 833 833 833
776 778 780 781 782 783 785 787 788 791 794 797 799 800 802 803 803 804 805 805 806 808 809 810 811 812 812 813 814 814 814 814 814 814 815 815 816 817 818 818 819 820 820 821 822 823 824 825 826 827 827 828 828 827 828 828 828 829 830 831 831 832 832 833 834 835 835 834 834 834 834 834 834 834 833 833 832 832 832 832 832 832 832 832 832
776 778 779 780 782 783 785 786 788 790 793 796 798 799 801 802 803 804 805 805 806 807 809 810 811 812 812 813 814 814 815 815 815 815 816 816 817 817 818 818 819 820 821 821 822 823 824 825 825 826 826 827 827 827 827 828 828 829 830 831 831 832 832 833 833 834 836 836 836 835 835 835 835 834 834 833 832 831 831 831 831 831 831 831 831
774 776 777 779 781 782 784 785 787 790 792 794 797 799 800 802 803 804 805 807 807 808 809 810 811 812 813 814 814 815 815 815 816 816 817 817 818 818 818 818 819 820 821 822 822 823 824 825 825 826 826 826 827 827 828 828 829 829 830 831 831 832 833 833 834 834 836 837 838 837 836 835 835 835 834 833 832 831 831 831 831 831 831 830 830
773 775 776 778 780 781 783 785 786 788 791 793 796 798 800 801 803 804 805 807 808 808 810 811 812 813 813 814 815 815 816 816 816 817 818 818 819 819 819 819 819 820 821 822 823 824 824 825 825 826 826 826 827 827 828 828 829 830 831 831 832 833 834 834 835 835 836 837 838 838 838 836 836 836 835 834 833 832 832 832 832 832 832 831 830
774 776 777 778 778 780 782 783 785 787 789 792 794 797 799 801 802 803 804 806 807 808 809 811 812 813 814 814 815 816 816 817 817 817 818 819 819 820 820 820 820 821 822 823 823 824 825 825 826 826 827 827 827 828 828 829 830 831 832 832 833 834 834 835 836 836 837 837 838 838 838 837 836 836 836 836 835 834 833 833 834 834 833 832 831
Wind_Speed
22 23 20 20 20 22 22 23 22 21 21 20 20 19 20 20 21 23 23 24 25 26 27 27 27 27 27 27 27 26 24 23 22 21 20 18 17 16 16 16 16 16 16 16 17 17 17 17 16 15 14 14 15 15 15 16 18 19 20 20 20 20 19 17 15 15 17 17 17 17 17 16 15 15 14 15 15 15 16 17 17 18 17 17 17
26 22 21 20 21 23 23 24 23 22 21 21 20 19 20 19 20 21 23 23 24 25 25 25 25 25 25 25 25 24 23 22 20 19 18 17 16 16 16 16 15 16 17 16 16 17 16 16 16 15 15 15 15 15 15 15 17 19 19 19 19 18 17 16 16 17 17 17 17 16 16 16 15 14 14 13 14 14 15 15 16 17 16 16 17
28 22 21 20 21 22 24 24 23 23 22 22 20 20 20 19 19 20 21 22 23 23 22 22 23 23 23 22 22 21 21 19 19 18 17 17 16 15 15 15 14 16 16 16 16 16 16 16 15 14 15 15 15 15 15 15 17 19 20 19 19 18 17 16 16 17 18 18 16 15 15 15 14 14 14 14 14 15 15 16 15 16 16 16 17
28 24 21 21 21 22 23 24 24 23 23 22 21 21 20 19 19 19 20 21 21 21 21 20 20 20 20 20 19 19 19 18 17 17 17 15 15 14 14 13 14 15 15 15 15 15 15 15 14 14 14 15 15 15 15 15 17 19 21 21 20 20 19 17 17 16 17 16 16 16 16 15 15 14 14 15 16 16 16 16 15 16 16 16 17
28 25 23 22 21 22 23 24 24 24 23 22 21 21 20 20 19 19 19 19 20 20 20 20 19 19 18 19 18 18 17 17 16 16 16 14 14 13 13 13 13 14 14 13 13 14 14 14 14 13 13 14 15 15 15 16 18 21 23 23 21 21 19 17 17 16 15 14 15 16 16 15 15 14 15 16 16 15 15 15 14 15 15 16 15
28 25 24 23 21 22 23 23 23 24 24 23 22 21 21 20 19 19 19 19 19 19 19 19 19 19 18 18 17 17 16 16 16 15 14 13 13 12 12 13 13 13 13 12 12 13 14 14 13 12 13 14 14 15 16 18 19 22 23 22 21 19 18 16 15 15 14 14 15 15 16 15 15 14 14 15 15 14 14 14 14 14 15 15 15
26 25 24 23 22 22 22 23 22 23 23 23 23 22 21 21 20 20 19 19 18 18 17 18 18 18 18 17 17 16 15 15 14 14 14 13 13 13 12 12 13 13 13 12 12 13 14 14 13 13 13 13 14 15 17 18 18 20 19 20 19 17 16 16 14 14 13 14 15 15 15 15 15 15 14 14 14 13 12 13 14 14 15 15 14
24 23 23 23 22 22 21 22 20 22 22 22 23 23 22 21 21 20 19 18 17 17 16 16 16 17 17 17 16 15 15 14 14 13 13 13 13 13 13 12 13 12 12 12 12 13 13 13 13 13 13 13 15 16 17 17 18 19 18 19 18 15 14 14 13 12 12 13 14 13 14 14 14 14 13 13 13 13 12 13 14 14 15 15 14
24 22 22 22 22 21 21 21 20 21 22 22 23 23 22 21 21 21 20 18 17 16 15 15 15 15 15 15 16 15 14 14 13 13 13 13 13 13 13 12 12 11 11 11 11 12 12 12 12 13 13 13 15 16 16 17 18 18 18 17 16 13 12 13 13 11 11 12 12 12 11 13 14 12 11 11 12 13 14 14 13 13 14 14 14
24 22 23 22 21 21 20 21 20 21 21 22 23 23 22 22 21 21 20 18 17 15 14 14 14 14 14 14 15 15 14 14 13 13 13 12 12 12 12 12 12 11 11 11 11 11 9 9 11 12 13 13 14 14 15 15 15 15 15 14 12 11 11 13 13 11 11 11 11 11 12 13 14 12 10 10 11 14 14 14 14 14 14 13 13
22 21 22 21 21 21 21 20 20 20 21 22 23 23 22 22 21 21 20 18 17 15 14 14 14 14 14 14 14 15 14 14 13 13 13 13 12 12 12 12 11 9 10 11 11 10 8 8 9 11 12 13 12 11 12 12 12 12 12 10 10 11 12 13 14 12 12 11 11 11 12 12 13 11 9 10 11 13 13 14 14 14 14 12 12
21 21 22 21 21 20 21 20 19 19 20 21 21 22 22 21 21 20 19 18 17 15 14 14 14 14 14 14 15 15 15 14 13 13 13 13 13 12 12 11 10 9 9 10 9 8 7 7 8 10 11 13 12 10 10 10 11 11 10 10 10 11 13 14 14 13 12 11 11 11 11 11 11 11 10 11 12 12 12 13 14 14 13 11 12
21 21 22 22 20 20 21 19 19 18 18 19 19 21 21 21 21 20 19 17 16 15 14 14 14 14 14 15 16 15 14 14 13 12 12 12 12 12 11 10 9 9 9 9 8 7 6 6 7 9 10 12 13 11 9 10 10 11 11 11 11 12 15 16 14 13 12 11 11 11 10 10 11 11 10 11 12 12 11 12 13 14 12 11 12
23 21 22 22 21 21 21 20 18 17 17 18 18 19 20 20 20 19 18 17 16 15 14 14 14 14 15 16 15 15 14 13 12 12 12 12 11 11 11 11 10 9 8 8 7 6 6 7 8 9 9 11 13 13 10 10 10 11 12 11 11 14 17 16 14 13 12 11 11 10 9 9 10 12 12 11 12 11 10 11 12 13 12 11 11
27 24 21 21 22 22 21 20 19 18 17 17 17 18 19 20 20 19 18 16 15 14 14 13 13 14 15 16 15 15 14 13 12 12 11 11 10 10 10 10 10 9 8 7 6 6 6 8 8 8 9 10 12 13 12 11 11 11 11 11 12 15 17 16 14 13 12 11 10 9 8 9 10 12 13 12 11 11 10 10 11 12 12 11 11
27 24 22 21 22 23 21 20 19 19 18 18 18 17 19 20 20 19 17 16 15 14 13 13 13 15 15 15 14 14 13 12 12 11 11 10 10 10 10 9 9 9 8 8 7 7 7 8 8 9 10 9 11 13 14 12 11 11 10 10 12 15 16 15 13 12 11 10 9 8 8 10 11 12 13 12 11 11 10 10 10 10 10 11 11
25 24 23 21 21 22 21 20 20 19 19 18 17 17 18 19 19 19 17 16 15 14 13 14 14 15 15 14 13 13 12 12 11 10 10 10 9 9 9 9 9 9 9 9 8 7 8 8 8 8 9 9 9 11 14 14 12 11 9 10 13 15 15 14 12 11 10 9 9 8 8 9 10 11 12 12 12 11 10 10 9 10 10 10 10
24 24 23 21 20 21 21 21 20 20 19 18 17 17 18 18 19 18 17 16 15 14 14 14 14 15 14 12 11 11 11 11 10 9 9 9 8 8 9 9 8 8 9 9 8 7 7 7 7 7 8 7 7 9 12 14 12 10 8 9 13 15 15 14 12 10 9 9 8 7 8 8 8 9 10 10 12 12 11 10 9 10 10 10 10
23 23 23 22 21 21 21 21 21 20 19 18 18 18 18 18 18 18 17 16 15 14 14 14 14 13 12 11 10 10 10 9 9 9 8 7 7 7 8 8 7 7 8 8 7 7 6 6 6 6 7 6 5 6 10 14 12 9 8 9 12 15 15 13 11 9 8 7 6 6 7 7 8 9 9 9 11 12 11 10 9 9 9 8 8
23 23 23 23 22 21 21 21 21 21 20 19 18 18 17 17 17 17 17 16 15 14 13 13 13 12 10 10 9 9 9 8 8 8 8 7 6 7 7 7 7 7 7 7 6 6 6 5 5 5 6 6 4 5 8 13 11 8 8 8 10 15 15 13 11 9 7 6 6 6 7 7 8 9 9 9 9 11 12 12 9 8 8 8 8
22 23 23 22 22 21 21 21 21 20 20 19 18 18 17 17 17 17 16 15 15 14 13 13 12 11 10 10 9 9 9 8 7 7 7 6 6 6 6 6 6 6 6 6 6 6 6 5 5 5 6 6 4 5 7 11 10 8 7 6 8 13 14 13 10 9 7 5 6 6 7 8 9 10 10 9 9 10 11 12 11 9 9 7 8
22 22 22 22 22 22 22 22 21 20 19 18 18 18 17 17 17 17 16 16 15 14 13 13 13 12 11 10 10 9 9 8 7 7 6 5 5 5 5 5 5 5 5 6 6 6 6 6 6 5 6 6 5 5 6 9 10 8 7 5 5 11 14 13 10 8 6 5 5 6 7 8 9 11 10 11 10 9 10 11 12 10 9 8 9
21 22 21 23 23 23 22 22 21 20 19 18 18 18 18 17 17 18 17 16 15 14 14 14 13 13 12 11 10 10 10 9 8 7 6 6 6 5 5 4 4 4 5 6 6 6 7 7 6 5 5 5 4 5 6 9 10 8 7 5 4 11 13 12 10 7 5 4 5 6 7 8 9 11 11 11 10 9 10 11 12 11 9 9 9
21 22 21 21 23 23 22 21 20 20 19 18 19 19 18 18 18 18 17 17 16 15 15 13 13 12 12 12 11 11 10 10 8 8 8 8 7 6 6 5 5 4 5 5 6 6 6 7 7 6 5 4 4 4 5 8 10 8 6 5 4 10 13 11 9 7 5 4 4 6 7 8 10 10 10 11 10 9 10 10 11 11 10 9 8
20 22 21 21 22 23 22 21 20 20 19 18 19 19 19 18 18 17 16 17 16 15 14 12 12 11 11 11 11 11 11 10 10 10 10 9 9 8 7 7 6 5 6 6 6 6 6 8 7 7 6 4 3 3 5 7 9 7 6 6 5 8 11 10 8 6 4 4 4 6 6 7 9 10 10 10 10 10 10 9 10 10 10 10 8
22 22 22 23 22 22 21 21 20 19 18 18 18 18 18 18 18 17 17 17 16 14 13 12 11 11 12 12 12 11 12 12 12 12 11 10 9 9 9 9 8 7 7 6 6 6 6 7 7 6 5 4 3 3 5 7 8 7 5 5 5 6 9 10 8 6 4 4 5 6 6 6 8 8 8 8 8 9 10 8 9 9 9 10 9
23 23 23 24 22 21 21 20 20 19 18 17 17 17 18 17 17 17 17 16 15 14 12 12 12 12 13 13 13 13 13 13 13 13 12 10 10 11 11 10 9 8 7 6 5 6 6 6 6 6 5 4 3 2 4 6 7 7 5 4 5 6 7 9 8 6 5 5 5 5 6 6 7 7 6 6 7 9 10 9 8 8 8 9 9
21 21 23 23 22 21 21 20 20 19 18 17 17 17 17 17 17 17 16 15 14 14 13 13 13 13 13 13 13 14 14 14 14 14 12 11 11 12 13 12 11 10 8 6 6 5 4 5 5 5 5 5 4 2 1 3 5 5 4 4 5 6 7 7 8 8 6 5 5 5 6 5 6 7 6 5 6 7 8 9 9 7 7 7 9
21 22 23 22 21 21 22 21 21 20 18 18 17 17 18 18 18 18 16 14 14 14 14 14 14 14 14 14 14 15 15 16 15 14 13 12 12 12 13 12 12 10 8 7 6 5 3 3 5 5 6 6 4 2 2 3 5 4 4 5 7 7 8 9 10 9 7 6 6 5 5 5 5 6 5 4 6 5 5 8 9 7 6 6 7
22 22 24 22 22 22 22 22 22 21 19 18 18 18 18 18 18 17 15 15 15 14 14 15 15 15 15 16 16 16 17 17 16 15 14 13 13 13 13 13 12 11 10 8 6 4 3 3 5 5 6 6 3 2 2 4 6 3 2 5 7 6 9 11 11 10 8 7 6 5 5 5 5 5 5 5 6 6 4 5 7 6 6 6 7
22 23 24 24 24 24 23 22 21 20 20 19 19 19 18 18 17 15 15 15 15 14 15 15 16 17 17 17 17 17 18 18 17 16 15 15 14 14 13 13 12 11 10 9 6 5 3 3 4 5 5 5 3 3 2 4 6 3 3 6 7 6 7 9 11 10 9 8 7 7 6 6 5 5 5 5 7 7 5 4 4 4 5 6 7
23 25 25 25 26 25 24 22 20 19 19 18 19 20 19 18 16 14 13 13 14 15 16 17 17 18 18 19 19 19 19 18 17 16 16 15 14 13 12 13 13 11 10 9 7 6 5 5 6 6 6 5 5 3 3 6 7 6 5 6 7 7 7 7 9 8 8 9 8 8 8 7 6 6 4 5 6 7 7 5 4 4 3 5 7
25 25 25 25 25 24 23 21 20 19 17 17 18 18 18 17 15 13 13 13 14 15 17 18 19 19 20 20 20 20 19 18 16 16 16 15 13 12 13 14 13 11 10 9 8 7 7 7 8 9 8 7 7 6 7 8 9 7 6 6 6 8 8 8 8 7 7 8 9 9 8 8 7 7 6 4 5 7 7 7 6 5 4 3 5
26 26 25 24 23 22 21 20 20 18 17 15 15 16 15 16 14 12 12 12 12 13 14 15 16 17 18 20 21 21 20 18 17 16 16 14 12 11 13 14 13 12 11 10 9 8 9 10 10 10 9 9 8 9 10 9 8 7 7 7 7 7 7 8 8 7 7 8 9 8 8 8 6 7 6 6 6 6 7 7 8 7 6 4 4
26 26 26 25 23 21 19 19 20 18 17 16 14 15 15 14 13 11 10 9 9 10 12 13 13 13 14 16 18 20 20 18 17 16 16 14 11 11 13 14 12 11 11 10 10 9 10 11 11 10 10 10 10 11 11 9 8 7 7 7 6 7 7 7 6 6 7 8 9 8 8 9 8 8 7 7 7 7 7 8 9 9 8 7 6
26 25 26 25 23 20 18 18 18 18 17 15 14 14 14 13 12 10 9 8 8 10 11 11 11 11 12 12 14 17 18 17 16 16 16 14 11 10 11 11 11 10 10 11 11 11 12 11 11 11 11 11 12 13 11 9 9 8 8 7 7 6 5 6 5 6 7 8 9 9 9 10 11 10 10 9 8 8 8 9 9 10 10 10 8
27 26 27 27 24 20 18 17 18 18 16 14 14 14 15 13 11 10 8 7 7 8 9 8 8 9 11 11 11 14 15 16 16 15 15 13 11 11 10 10 10 11 11 12 12 12 13 12 11 11 12 13 14 13 11 10 9 8 7 7 7 4 3 2 2 4 6 6 7 8 9 11 12 13 12 11 11 11 10 10 10 11 12 12 11
28 28 29 28 25 21 20 18 18 18 16 15 15 16 16 14 12 10 8 6 5 5 5 5 4 6 8 9 10 11 12 14 15 15 14 12 10 11 11 11 12 12 12 13 12 12 12 12 12 12 13 13 14 13 11 11 9 8 5 5 6 3 1 2 3 2 4 4 5 5 6 8 10 12 13 13 13 13 13 13 13 13 13 13 13
28 29 30 28 25 22 21 20 20 19 18 16 16 17 17 15 13 10 8 7 5 4 3 3 3 4 5 7 9 9 9 10 13 15 14 12 10 11 12 12 12 12 12 12 12 12 12 12 13 14 14 12 12 11 10 10 9 7 4 3 6 6 4 4 5 3 3 3 4 5 6 7 8 9 10 11 13 13 14 15 15 16 15 14 14
28 29 29 28 26 25 24 23 22 20 18 16 17 18 18 17 14 12 10 9 6 5 4 2 1 2 4 5 6 7 7 7 9 11 12 12 11 10 12 12 11 10 11 11 11 12 12 13 13 13 13 11 10 9 8 8 6 6 4 3 5 6 5 5 5 3 1 2 3 4 5 6 7 8 8 8 10 11 13 15 17 17 17 16 15
28 29 29 30 30 29 27 25 21 18 17 17 17 18 19 19 17 15 13 11 9 7 6 4 2 3 4 5 5 5 6 7 7 8 9 9 9 8 10 11 9 8 8 9 10 11 12 13 13 12 11 11 10 8 7 6 5 3 2 3 5 6 7 5 4 3 4 3 3 3 4 4 5 5 6 7 8 9 10 11 14 16 17 17 17
29 31 33 34 33 30 27 24 21 19 19 19 19 18 18 19 20 19 17 14 12 9 7 5 3 4 5 6 6 6 7 7 7 7 6 7 7 7 9 9 8 7 7 7 9 12 13 13 12 11 10 10 9 8 6 5 3 2 1 2 4 5 6 4 3 3 4 4 4 3 2 3 4 3 3 4 5 7 7 7 9 11 13 15 16
33 34 34 34 33 31 28 25 23 22 22 21 20 18 17 19 20 20 19 17 14 11 8 7 5 4 5 6 6 7 8 7 6 6 5 5 6 7 8 6 5 6 7 8 9 11 12 12 12 12 11 10 8 8 8 6 3 3 2 1 1 2 2 3 3 2 3 5 3 3 2 2 3 3 2 2 3 6 7 7 8 7 8 10 13
33 33 33 34 33 31 29 26 24 24 23 21 19 18 18 20 21 21 20 19 17 15 13 11 9 7 5 4 4 4 5 6 6 5 5 5 5 5 5 4 4 5 7 8 9 9 9 10 11 12 12 10 8 7 8 8 6 4 2 1 1 1 2 3 4 3 4 6 5 4 4 2 2 3 3 3 3 4 6 7 9 10 9 10 11
31 31 33 34 33 31 28 26 24 24 24 21 19 19 21 23 24 22 21 20 19 18 17 16 13 11 8 6 5 4 4 4 4 4 5 5 5 4 3 3 3 4 6 6 7 7 8 9 10 10 9 8 8 7 6 7 7 4 3 2 1 2 0 2 3 3 5 5 5 5 5 3 2 2 3 4 4 5 5 6 8 10 9 9 11
28 31 33 34 33 31 28 25 24 25 25 22 19 21 24 26 26 25 23 22 20 18 18 16 14 13 11 10 9 7 7 6 5 5 5 6 7 5 4 3 2 2 3 4 5 5 6 8 8 7 7 6 6 6 6 6 7 4 3 3 2 2 1 1 0 1 3 5 6 6 5 4 3 3 4 4 4 4 6 7 8 9 9 9 11
26 30 32 33 32 30 28 26 25 26 26 23 20 22 25 27 27 26 25 24 21 18 16 15 14 14 13 12 10 9 8 8 7 7 7 8 8 7 5 4 4 2 1 1 1 2 3 5 6 6 6 5 5 6 6 6 7 4 3 1 2 3 2 2 2 0 1 2 5 7 7 6 5 6 8 7 6 4 4 5 6 7 8 9 10
28 30 32 32 31 30 28 26 26 27 27 25 22 23 27 28 27 26 24 22 20 18 17 15 14 14 13 12 11 10 9 9 9 9 9 10 10 8 6 5 6 5 3 3 3 3 3 3 4 5 5 5 5 5 5 7 7 6 5 3 1 1 2 3 2 2 2 0 3 4 7 9 7 8 10 9 7 6 5 6 6 6 7 8 9
31 33 33 33 31 31 29 27 28 29 29 27 24 24 26 28 27 25 23 20 19 19 18 17 15 14 14 13 12 11 11 10 10 10 11 12 11 10 9 6 6 6 6 6 6 6 6 5 4 4 4 5 5 4 5 6 6 5 5 4 2 3 4 5 3 3 4 2 2 2 6 10 9 10 13 10 8 8 8 8 8 9 8 6 6
31 32 32 32 32 32 31 29 30 31 31 29 26 25 28 29 27 25 22 21 21 21 20 18 17 16 15 15 14 12 12 11 11 13 14 13 12 11 10 9 9 9 9 8 9 9 7 6 5 3 3 4 4 3 4 5 5 4 5 4 5 6 5 5 5 5 4 3 1 1 4 7 7 10 15 18 18 18 18 18 18 18 18 16 12
25 26 28 30 32 33 33 31 32 34 33 31 28 27 29 29 27 25 24 24 25 24 23 21 20 18 18 16 15 13 13 13 15 16 16 15 14 13 12 12 12 12 12 11 11 11 9 7 7 6 7 6 7 7 7 7 6 6 5 5 6 6 5 5 6 6 4 3 2 1 4 5 4 5 11 16 19 21 21 22 23 22 23 22 20
Wind_Direction
173 167 162 165 165 159 158 159 157 156 152 147 143 139 135 129 124 122 122 120 117 117 116 116 116 117 117 116 116 115 114 113 112 110 109 110 108 106 106 102 92 89 96 100 101 102 105 108 110 113 114 112 111 110 110 110 113 113 111 108 108 109 105 105 111 110 104 96 89 93 94 90 87 86 89 89 89 87 85 84 84 85 80 76 74
168 163 160 163 164 160 159 160 160 157 152 149 145 142 137 131 126 123 125 123 120 119 119 119 118 118 117 117 116 114 114 112 110 109 108 107 107 107 107 105 95 93 100 102 102 103 105 107 108 112 112 114 112 112 113 112 115 117 116 112 112 113 109 106 111 111 105 100 95 94 94 92 88 88 89 90 89 84 80 83 85 86 82 77 74
164 160 159 161 162 161 160 161 162 159 153 151 147 144 139 133 129 125 126 126 124 122 123 123 121 120 120 119 118 117 115 113 111 108 107 106 107 107 107 107 102 98 99 100 101 102 104 107 109 111 113 116 115 115 116 115 116 118 116 113 112 109 105 103 107 109 107 106 105 103 99 94 91 89 90 90 90 85 80 82 84 83 82 77 74
162 158 156 158 160 162 161 161 163 160 155 153 149 145 141 136 132 128 126 127 127 125 126 125 124 123 122 122 121 121 119 117 115 112 110 109 109 110 111 111 109 104 100 99 101 100 101 104 106 109 113 114 116 117 117 119 119 118 116 113 111 107 103 102 105 106 107 109 111 110 103 96 93 91 91 93 90 85 82 84 83 81 80 76 75
159 156 156 156 160 163 162 162 163 160 157 155 151 146 142 138 133 130 127 126 126 126 127 126 127 126 124 122 121 122 121 120 117 116 114 112 112 112 114 113 111 108 104 103 104 105 105 103 100 104 110 114 116 116 117 120 120 118 115 112 109 104 101 101 103 104 105 107 108 109 105 100 96 93 92 95 94 91 89 86 85 84 80 76 73
157 155 155 155 159 163 163 162 162 161 159 157 153 147 143 141 136 132 129 128 126 126 127 126 126 126 124 121 120 120 120 120 119 118 115 113 112 112 113 113 111 108 107 107 108 108 109 105 95 100 110 115 116 117 120 120 120 120 116 112 110 105 102 100 100 101 102 105 106 108 107 104 99 96 94 94 95 97 95 88 86 85 81 78 74
154 153 153 153 158 163 164 160 159 160 160 159 155 149 146 143 139 135 132 129 127 127 127 126 125 124 124 122 121 120 121 122 121 121 118 117 114 112 113 111 109 109 109 109 111 111 109 100 91 100 110 114 118 121 123 123 123 123 120 118 117 112 107 103 101 99 99 104 106 107 107 105 102 103 102 99 96 95 96 91 87 86 82 80 78
151 150 151 151 156 163 163 157 156 158 159 160 157 152 149 146 143 138 135 132 128 128 129 128 126 124 123 122 123 122 123 123 123 124 123 122 119 118 117 115 115 115 112 109 111 112 108 94 87 101 111 116 123 126 126 128 127 127 127 127 126 118 111 109 107 103 103 104 103 104 106 108 107 105 105 106 101 94 96 96 91 90 86 81 80
149 149 150 150 153 159 159 156 157 157 158 160 159 155 152 150 147 143 139 136 132 131 132 132 129 126 122 120 122 123 124 124 125 126 127 127 125 124 123 125 126 122 115 112 112 112 108 94 87 99 112 120 126 128 129 131 130 132 134 135 134 125 118 117 117 111 109 107 101 101 106 111 110 106 106 108 105 99 101 102 96 93 89 84 82
148 149 151 149 149 155 157 157 158 158 160 160 160 158 155 154 150 146 144 140 137 134 135 135 132 128 122 120 120 121 124 126 127 129 131 132 131 129 129 132 132 126 119 120 119 117 111 98 91 97 115 127 127 127 131 133 133 136 137 138 136 135 135 129 128 122 116 112 105 101 104 111 111 109 106 102 104 104 104 101 95 92 90 87 86
145 147 149 147 149 154 154 155 159 161 161 159 160 160 159 157 153 149 147 145 141 138 138 138 135 130 125 123 122 122 124 127 130 132 133 134 135 133 134 137 138 133 128 128 126 124 115 104 100 98 115 134 135 131 133 134 135 136 133 130 129 142 148 138 136 128 120 116 109 107 108 112 110 109 103 98 105 108 106 102 99 96 92 91 90
144 147 148 146 148 151 150 153 157 161 161 158 159 161 161 160 157 154 151 149 144 142 142 140 138 134 130 127 125 124 126 129 132 133 134 134 136 137 140 143 143 140 138 138 134 128 119 110 108 106 116 137 148 144 139 140 138 135 124 120 131 145 146 139 137 129 123 118 112 114 115 114 110 108 101 100 104 105 105 106 104 101 98 95 90
141 146 149 147 146 148 147 150 154 158 160 158 160 161 162 163 162 159 155 152 149 147 145 144 142 138 133 130 127 127 128 131 133 134 134 135 137 140 143 145 145 143 142 144 140 132 124 117 116 115 117 135 153 159 153 150 142 132 119 121 137 140 137 138 135 128 124 118 115 117 116 112 111 111 107 105 107 105 105 107 107 105 104 97 92
143 147 151 148 145 146 147 149 151 154 158 159 160 161 163 165 165 163 159 156 153 151 149 148 146 141 137 132 130 130 131 131 132 134 133 134 136 138 141 145 147 145 145 147 146 137 126 124 122 118 120 132 152 166 164 156 146 132 118 121 138 137 137 139 134 128 123 119 119 119 117 113 115 116 112 109 108 110 109 109 110 108 107 99 97
151 152 151 147 144 145 146 147 149 153 157 159 160 160 163 166 169 166 162 159 157 155 152 151 148 144 140 136 135 134 132 131 132 134 135 136 136 138 140 144 147 146 147 148 143 133 126 127 124 118 123 130 146 165 169 161 148 135 120 118 137 141 142 142 135 131 125 124 123 123 126 123 121 120 117 114 111 111 111 111 112 111 109 105 104
155 152 149 147 145 144 145 147 150 153 155 159 160 160 163 167 170 169 165 162 160 159 156 155 152 148 145 140 139 138 134 132 133 135 136 138 139 140 140 140 142 143 143 141 137 131 128 129 126 121 124 125 138 158 169 166 150 138 121 120 142 148 148 146 139 135 129 126 122 124 131 130 128 124 121 119 115 114 114 114 113 111 109 106 106
154 152 149 149 149 144 145 149 152 153 155 157 159 160 163 167 169 169 167 166 164 163 160 159 157 153 149 144 143 142 138 134 134 137 139 141 142 141 138 138 140 142 141 139 136 131 131 132 130 127 125 121 127 149 166 167 153 141 122 122 148 154 153 151 143 139 131 126 122 123 127 131 135 132 129 123 117 117 118 115 112 111 107 105 105
154 155 152 150 151 146 149 153 153 154 155 157 159 162 164 166 168 170 169 169 169 167 164 162 160 156 152 149 149 147 142 139 138 141 144 143 143 141 137 138 139 140 142 141 138 134 134 134 134 132 130 122 116 137 160 165 155 145 123 120 147 155 155 155 149 141 134 132 128 127 127 132 138 138 140 131 123 123 121 119 119 116 113 110 108
155 158 156 155 154 151 153 155 156 157 157 159 161 163 164 166 168 170 171 171 173 170 166 163 160 158 156 155 155 153 150 147 145 144 146 146 143 142 140 140 138 136 140 143 142 142 141 139 139 138 137 129 111 120 148 159 157 148 123 112 144 156 156 157 154 144 139 141 139 137 137 139 140 143 149 141 131 131 128 125 124 120 118 117 112
157 159 158 159 157 154 155 157 159 159 159 160 160 162 164 167 168 170 173 174 175 172 168 164 162 160 161 162 161 161 160 158 154 149 146 148 150 149 148 146 144 138 139 147 149 151 151 149 144 141 141 134 113 104 134 153 156 149 126 106 136 155 159 161 157 149 145 148 151 150 149 147 144 147 152 148 139 137 136 131 127 122 120 120 114
159 160 159 160 160 158 158 160 162 158 156 157 158 160 163 167 169 172 174 177 177 174 171 166 166 167 168 171 171 172 174 172 167 159 151 150 157 161 159 154 152 146 143 150 156 160 161 160 150 142 143 141 128 111 129 149 152 147 130 103 128 152 161 166 160 154 153 154 161 159 155 152 148 151 152 149 144 141 140 138 133 129 128 127 121
160 160 162 164 166 165 163 164 163 157 154 155 158 160 165 169 170 173 176 179 179 176 174 171 174 175 176 181 183 184 186 184 180 176 168 162 166 169 172 171 166 162 157 156 160 165 168 168 157 146 145 149 145 127 133 146 149 147 130 98 130 156 161 165 165 158 154 156 167 164 158 155 151 153 153 149 150 150 144 142 139 135 137 137 134
164 161 165 169 173 171 168 168 163 158 157 158 161 164 168 172 174 178 180 180 180 182 180 178 181 183 184 189 192 193 194 193 190 190 189 187 184 180 186 188 185 180 173 166 164 167 171 171 163 159 162 161 153 134 138 147 149 151 132 96 126 159 162 165 168 162 154 161 170 166 159 156 156 157 155 152 155 156 148 144 143 142 144 146 149
168 166 169 173 177 176 173 171 165 163 163 164 167 170 172 176 180 182 183 182 184 189 187 184 186 189 192 194 198 201 201 199 194 197 203 206 202 194 193 196 202 199 191 181 172 171 174 176 175 178 184 177 158 142 145 152 154 154 139 113 121 157 164 166 171 166 157 171 174 166 161 156 159 162 159 158 162 161 154 152 150 151 151 150 156
170 170 175 179 180 180 177 173 170 169 169 171 173 175 177 180 184 186 187 187 190 194 191 190 191 195 200 203 206 208 210 205 199 204 211 215 216 211 206 200 203 210 205 196 182 179 180 182 187 192 201 199 175 152 150 157 160 158 143 128 123 155 170 174 176 176 168 179 180 167 164 158 159 164 164 167 173 171 164 163 159 159 159 155 157
172 174 179 182 183 183 181 177 175 176 177 178 179 180 181 184 187 190 192 190 194 198 196 196 198 204 209 214 215 214 217 214 209 213 218 223 225 223 221 209 204 211 210 208 198 189 185 186 191 197 209 214 200 164 152 156 161 160 144 128 127 152 176 186 187 185 180 186 188 172 167 160 156 164 170 175 182 177 171 172 168 167 167 157 158
174 176 180 183 185 185 185 183 182 183 184 185 186 187 188 189 190 195 197 196 199 203 204 204 205 211 216 219 220 220 222 221 219 221 226 230 231 229 227 218 210 212 212 214 213 202 193 189 191 193 202 209 204 182 158 160 163 165 155 135 138 147 167 191 199 196 190 193 192 177 175 169 161 166 174 181 183 180 176 178 179 178 178 164 160
174 176 182 186 186 188 189 189 190 189 189 190 192 194 194 195 196 200 202 201 207 210 211 212 211 214 220 223 222 223 225 226 225 226 231 235 236 234 229 223 218 217 214 216 221 217 209 197 192 187 188 196 195 202 205 188 187 190 192 175 169 163 162 182 198 201 196 192 189 182 183 177 167 170 181 188 181 186 185 184 190 195 200 185 172
174 178 184 186 186 191 193 194 197 195 194 195 198 200 198 199 202 207 206 206 214 218 218 218 218 219 223 228 227 225 226 230 230 230 234 238 239 240 236 227 224 224 218 220 226 226 224 199 190 183 183 191 197 234 282 241 212 217 227 205 194 184 175 176 186 196 195 185 179 180 191 190 178 180 195 194 181 191 194 190 198 206 215 212 194
177 181 182 186 188 192 196 197 199 199 199 199 202 204 202 202 206 211 211 212 218 225 227 226 226 226 226 230 232 229 227 231 232 232 238 244 245 246 243 232 227 227 224 224 227 232 240 207 186 180 182 193 214 260 267 221 202 207 213 192 190 182 179 181 184 193 195 185 176 174 189 200 197 197 209 199 184 196 205 196 203 209 212 213 208
180 181 182 187 189 193 196 198 199 200 201 201 204 206 206 206 208 213 218 222 225 228 232 232 232 232 231 232 234 231 230 233 234 235 241 248 250 250 249 238 230 227 225 226 226 237 246 226 199 190 197 208 241 272 243 195 181 168 159 173 182 178 180 187 189 196 199 193 185 182 186 197 209 212 212 200 189 200 211 207 210 214 215 214 211
184 184 185 188 190 193 196 198 199 199 200 202 204 205 207 207 208 215 222 227 228 230 235 236 237 235 233 233 233 231 229 231 234 238 242 250 254 254 251 241 234 229 226 226 225 237 243 234 219 211 218 226 246 247 204 187 167 149 152 161 173 178 179 187 194 202 204 202 198 195 192 194 208 217 216 205 197 205 217 219 221 224 219 220 216
187 186 187 187 187 191 193 196 197 195 196 197 198 201 204 204 206 213 218 223 226 232 235 238 240 237 234 233 231 230 228 228 234 238 241 249 253 256 253 241 237 233 230 228 226 234 235 228 222 218 218 225 241 222 189 181 165 150 148 145 152 164 171 179 193 209 214 211 209 210 205 199 207 214 218 219 212 214 219 224 232 239 230 223 219
183 183 183 181 180 185 188 190 191 192 192 189 188 189 193 196 198 199 206 217 225 229 229 230 234 232 232 232 231 230 229 231 235 235 238 243 249 256 250 239 236 231 229 228 227 230 225 223 222 218 216 223 232 215 197 186 170 159 148 143 144 146 154 166 178 198 211 214 220 228 220 210 217 219 220 224 229 230 226 229 239 248 246 241 234
178 179 179 174 175 181 184 187 189 191 189 184 182 180 180 181 182 182 189 209 222 227 228 228 230 232 235 234 231 230 232 236 234 232 235 238 246 250 239 234 235 229 225 224 223 222 215 217 222 221 221 221 213 205 204 197 182 171 153 143 138 133 143 153 163 178 190 204 218 235 231 226 233 236 235 233 238 242 240 239 244 252 254 257 254
174 176 174 172 176 179 182 184 182 182 179 176 176 173 171 169 171 174 180 201 221 231 235 239 239 240 243 238 230 229 231 234 234 233 236 237 235 230 223 226 231 223 220 218 214 213 209 213 220 219 220 216 206 201 199 197 191 177 155 139 124 111 118 132 154 174 178 192 207 221 226 230 238 245 248 246 248 251 253 251 249 253 256 262 262
174 172 171 172 178 179 179 179 173 172 170 163 160 158 159 162 167 170 167 186 217 234 242 247 249 247 247 241 232 231 231 232 236 236 237 239 230 218 214 218 221 216 213 211 207 208 209 212 213 212 217 215 208 203 195 195 194 179 162 151 140 108 81 108 166 179 174 182 197 212 220 227 235 242 248 250 254 255 257 258 255 254 254 258 261
176 173 171 173 177 177 177 177 172 170 165 155 149 148 155 162 164 159 149 155 191 225 242 250 248 247 250 247 239 234 233 233 232 231 233 235 224 216 217 217 217 213 207 204 202 205 205 206 207 205 209 208 205 203 197 198 196 186 178 182 198 234 298 253 262 223 180 183 198 213 222 228 232 238 245 249 254 256 258 259 258 257 253 254 257
179 175 173 174 176 175 174 171 169 167 160 152 149 150 157 164 160 151 144 144 159 185 211 238 247 247 249 247 236 227 227 225 222 225 228 223 209 209 218 221 220 213 205 198 194 198 197 198 204 202 200 200 204 207 202 203 204 203 206 200 217 240 244 247 269 258 207 200 212 221 224 228 231 235 241 247 252 255 255 255 256 257 256 255 256
178 176 175 175 172 168 164 162 163 162 157 155 155 154 158 162 161 156 153 151 153 154 160 178 208 225 224 218 213 211 213 210 209 217 219 214 210 211 216 221 222 216 207 198 192 195 196 197 200 200 197 190 193 203 203 205 209 212 222 214 211 227 237 254 285 301 286 247 235 228 220 221 228 231 235 243 253 258 260 256 252 253 257 258 259
172 175 173 170 167 163 161 160 160 162 163 163 162 160 162 164 162 160 158 157 160 156 154 160 143 152 178 189 192 193 195 191 188 195 200 208 216 219 219 223 228 226 214 203 200 202 202 201 199 196 193 186 183 193 201 203 209 208 224 252 243 243 251 263 294 331 345 325 286 259 232 220 226 230 236 246 256 263 267 264 255 249 251 258 262
166 170 170 168 165 164 163 161 161 164 167 166 165 165 168 168 165 161 159 159 163 164 164 173 166 143 143 155 162 153 154 159 164 173 181 197 213 219 221 225 232 234 225 212 210 211 208 206 207 202 194 187 184 187 192 196 212 199 162 299 271 260 263 273 290 306 340 345 325 301 257 219 217 215 231 252 266 269 267 271 269 260 255 258 263
166 169 170 168 165 165 164 161 163 165 165 167 170 171 169 169 166 161 159 158 159 164 164 162 166 157 134 131 138 137 139 142 146 156 168 186 202 207 209 214 221 232 235 221 213 217 214 208 212 210 198 188 181 186 196 201 209 189 143 21 309 292 307 342 342 325 7 17 7 344 325 242 224 219 234 281 300 293 282 274 276 285 280 270 269
168 170 170 168 166 165 164 162 165 166 166 172 179 180 173 167 162 158 156 153 150 151 149 144 148 153 145 136 139 143 147 148 147 153 160 168 174 182 194 204 213 229 234 223 214 211 205 200 203 206 201 194 186 190 201 204 207 189 139 125 174 67 32 352 346 6 33 26 27 20 1 320 255 247 264 296 309 307 303 285 276 285 285 283 286
171 171 170 169 168 167 166 166 166 167 171 177 181 181 175 164 155 150 149 146 144 147 146 144 145 147 149 152 155 167 180 177 169 165 160 154 145 147 173 199 213 228 230 229 225 209 195 195 197 201 206 204 195 193 195 200 204 182 115 109 91 57 266 295 336 18 39 35 40 39 27 9 322 281 289 304 300 287 291 286 278 280 279 284 293
175 173 172 173 172 171 170 170 169 169 176 183 182 180 176 167 159 155 153 149 147 151 152 150 150 149 152 156 154 157 169 177 179 182 178 165 152 147 156 183 207 227 233 244 248 229 211 204 202 206 215 217 215 212 206 211 213 181 103 93 83 85 180 206 52 355 18 51 60 49 36 23 15 9 2 351 332 300 287 284 277 276 278 283 288
179 177 176 177 176 174 174 174 171 172 180 186 184 181 177 172 169 168 166 162 157 157 157 154 152 151 152 156 156 155 158 165 170 179 185 174 160 156 163 186 200 189 192 217 224 233 229 216 209 210 216 219 223 223 215 215 215 193 158 142 89 94 103 100 122 112 357 31 42 47 45 36 39 32 22 17 10 354 325 313 302 295 294 292 292
181 180 180 181 180 178 179 177 174 175 182 188 187 185 181 177 176 174 172 171 165 159 157 155 153 153 153 155 156 154 155 157 160 167 173 172 167 166 173 191 201 188 160 135 131 137 152 175 187 192 208 220 222 232 226 206 197 190 185 181 96 74 66 69 101 110 115 326 352 26 29 22 31 31 20 14 5 354 346 341 337 332 320 308 305
184 184 184 183 183 182 182 180 178 180 185 190 190 188 187 183 179 177 172 169 164 157 156 157 155 156 155 154 153 151 151 153 158 161 161 162 161 162 166 170 174 164 144 130 125 123 127 137 155 178 202 211 211 234 234 200 190 190 186 175 137 104 87 78 89 102 110 105 316 312 355 6 14 29 36 42 44 41 39 39 41 38 30 11 340
187 186 186 185 184 184 184 183 183 184 188 192 192 190 189 186 183 179 171 163 159 155 156 158 159 161 157 153 150 145 145 150 153 152 150 147 145 145 149 147 141 137 132 127 125 123 119 116 114 135 167 170 168 176 183 180 183 182 179 172 142 121 104 87 86 90 100 101 86 289 354 2 359 28 52 65 68 70 70 68 64 58 54 53 47
189 189 188 187 185 185 187 187 187 188 191 193 194 192 190 188 186 181 173 165 161 160 160 160 162 164 162 158 155 149 144 145 145 145 143 140 138 139 142 141 138 135 133 132 132 131 131 129 125 127 129 123 119 124 135 144 149 142 133 134 129 115 96 85 78 69 64 63 52 352 353 355 337 22 59 68 65 66 68 61 54 50 49 50 52